PST,Max TemperatureF,Mean TemperatureF,Min TemperatureF,Max Dew PointF,MeanDew PointF,Min DewpointF,Max Humidity, Mean Humidity, Min Humidity, Max Sea Level PressureIn, Mean Sea Level PressureIn, Min Sea Level PressureIn, Max VisibilityMiles, Mean VisibilityMiles, Min VisibilityMiles, Max Wind SpeedMPH, Mean Wind SpeedMPH, Max Gust SpeedMPH,PrecipitationIn, CloudCover, Events, WindDirDegrees
2012-11-1,75,55,34,48,35,23,76,46,15,29.97,29.92,29.87,,,,17,9,20,0.00,,,83
2012-11-2,73,52,30,47,38,30,92,59,25,29.95,29.91,29.84,,,,18,7,22,0.00,,,33
2012-11-3,78,60,42,39,31,28,70,43,16,30.02,29.97,29.92,,,,21,8,25,0.00,,,53
2012-11-4,81,62,43,31,23,17,53,32,10,30.08,30.03,29.99,,,,23,9,30,0.00,,,53
2012-11-5,84,64,44,24,21,19,39,25,10,30.07,30.03,29.98,,,,17,8,21,0.00,,,53
2012-11-6,87,64,41,34,27,22,49,30,10,30.09,30.02,29.96,,,,20,6,22,0.00,,,40
2012-11-7,81,61,40,44,31,22,53,33,12,30.04,29.97,29.91,,,,17,7,24,0.00,,,42
2012-11-8,70,54,37,51,46,30,93,69,45,29.96,29.89,29.82,,,,23,6,26,0.02,,,224
2012-11-9,52,50,47,50,43,39,96,88,80,29.88,29.84,29.80,,,,23,15,29,0.11,,,244
2012-11-10,52,47,42,42,35,29,96,71,46,30.10,29.97,29.88,,,,28,14,35,0.08,,,258
2012-11-11,55,42,28,29,18,14,85,53,20,30.24,30.17,30.10,,,,28,11,33,0.00,,,43
2012-11-12,62,55,48,14,3,-14,24,16,8,30.19,30.12,30.05,,,,28,18,36,0.00,,,54
2012-11-13,71,57,42,12,-1,-8,19,12,5,30.09,30.03,29.98,,,,24,13,30,0.00,,,64
2012-11-14,76,56,36,26,13,4,44,26,7,30.04,30.00,29.95,,,,17,6,23,0.00,,,55
2012-11-15,65,54,43,32,23,9,42,27,11,30.08,30.04,29.98,,,,13,3,14,0.00,,,47
2012-11-16,69,55,40,47,42,34,76,60,44,30.07,30.02,29.98,,,,18,7,25,0.00,,,197
2012-11-17,66,55,44,50,45,40,93,73,52,30.05,30.02,29.99,,,,22,7,26,0.00,,,247
2012-11-18,64,51,38,48,42,36,92,70,48,30.12,30.07,30.03,,,,14,5,17,0.00,,,339
2012-11-19,70,52,33,47,38,31,92,64,36,30.18,30.13,30.08,,,,16,5,20,0.00,,,33
2012-11-20,75,54,32,48,36,28,89,54,19,30.12,30.04,29.97,,,,16,5,,0.00,,,71
2012-11-21,70,51,31,47,36,27,89,56,23,30.06,30.01,29.96,,,,18,7,22,0.00,,,67
2012-11-22,75,55,34,38,32,28,85,52,19,30.08,30.03,29.98,,,,20,7,23,0.00,,,56
2012-11-23,76,60,44,34,27,21,54,34,13,30.11,30.07,30.03,,,,25,13,30,0.00,,,50
2012-11-24,81,61,40,29,24,16,49,29,9,30.07,29.98,29.90,,,,24,9,29,0.00,,,48
2012-11-25,79,60,40,35,29,27,53,34,15,29.93,29.88,29.81,,,,20,7,23,0.00,,,28
2012-11-26,76,57,37,45,31,26,64,41,17,30.05,29.99,29.91,,,,16,7,20,0.00,,,73
2012-11-27,76,56,36,44,30,27,64,40,16,30.12,30.05,29.97,,,,17,7,23,0.00,,,48
2012-11-28,69,53,36,45,36,30,76,52,28,30.16,30.10,30.05,,,,18,7,22,0.00,,,39
2012-11-29,70,58,45,54,47,39,86,65,44,30.18,30.13,30.07,,,,16,5,20,0.00,,,276
2012-11-30,64,55,46,55,52,45,96,82,67,30.12,30.08,30.06,,,,16,6,20,0.00,,,221